Theta_e
344 342 345 337 323 319 312 312 319 317 320 326 327 323 321 325 323 320 334 333 335 340 347 352 357 356 355 355 354 353 353 352 352 351 350 349 348 348 348 349 348 347 346 345 343 343 344 345 345
345 341 339 332 313 310 311 318 317 321 326 328 326 326 324 325 331 334 329 334 336 341 346 348 356 356 355 355 354 352 351 351 351 350 349 348 348 346 346 347 346 345 345 344 344 344 342 343 341
345 340 331 321 317 311 311 318 320 322 324 324 321 325 328 327 330 331 334 335 338 340 344 356 357 356 356 355 354 353 352 351 350 349 349 349 348 347 346 347 346 343 342 342 343 342 339 339 339
334 334 332 315 313 317 318 322 321 322 324 324 323 322 332 336 332 336 338 335 336 338 344 357 357 357 357 355 354 353 352 351 350 350 349 349 350 350 349 347 347 345 341 341 342 342 336 337 338
333 328 315 315 314 319 322 325 322 321 322 322 324 322 327 335 338 340 338 335 334 337 345 354 357 357 356 355 353 352 352 351 351 351 351 351 351 351 350 350 349 347 343 340 341 341 334 335 336
321 325 312 310 315 319 323 326 323 322 323 323 322 323 328 338 337 338 337 334 335 336 340 352 356 356 355 355 354 353 353 352 352 352 352 352 352 352 351 351 350 349 348 343 343 343 336 335 334
320 319 314 312 312 316 321 328 324 321 321 322 326 321 330 335 337 338 336 336 336 339 340 346 351 354 356 356 355 354 353 352 352 351 352 352 352 352 352 351 351 350 350 349 346 344 338 334 333
321 320 313 316 311 314 322 324 327 323 321 329 328 322 326 334 338 339 338 336 336 340 341 343 345 349 350 352 355 355 352 352 351 351 351 352 352 354 352 352 353 353 353 351 350 340 337 335 334
324 314 311 314 314 313 323 321 326 329 326 327 329 328 334 339 339 337 336 337 338 340 342 344 345 345 347 347 353 350 352 349 352 351 348 350 349 346 341 349 350 353 353 350 347 340 337 337 335
318 313 313 317 319 320 322 322 323 323 326 324 327 331 335 338 338 336 335 336 338 340 342 347 352 352 350 346 349 349 348 344 342 342 341 345 347 349 350 348 352 350 352 349 346 340 337 336 331
318 314 317 318 320 322 321 321 325 324 319 326 324 329 334 336 337 336 335 338 340 346 349 348 349 352 351 350 348 346 349 345 343 344 348 342 337 341 346 344 343 346 347 344 342 338 334 333 331
314 318 318 319 321 321 320 324 322 325 325 330 331 332 334 334 333 338 340 342 344 343 344 345 347 352 353 351 346 345 348 342 342 350 350 352 349 349 346 344 343 341 342 341 343 340 335 336 336
316 318 320 321 321 323 323 322 323 325 329 332 332 333 333 337 339 339 340 342 343 342 344 345 351 354 353 351 348 346 347 346 345 345 346 352 354 353 352 345 345 342 339 339 337 339 335 336 335
319 320 321 322 322 324 320 324 326 327 331 332 333 334 338 340 339 332 335 341 344 344 344 349 349 353 351 350 350 348 347 347 344 345 348 350 352 355 346 345 343 341 341 340 337 335 335 336 334
320 315 317 321 321 322 322 315 323 330 332 331 334 336 336 337 339 339 343 345 344 343 348 350 347 350 351 350 348 347 345 344 344 345 349 350 352 352 350 350 343 343 347 343 340 338 339 334 334
315 316 312 318 319 323 318 309 324 330 328 328 330 331 335 337 338 341 344 345 344 345 346 349 349 349 349 347 346 344 344 344 345 347 346 347 346 346 348 350 345 339 343 342 338 335 333 329 329
313 308 312 312 320 321 320 318 325 329 328 329 332 334 336 338 342 344 344 341 342 345 344 344 345 345 347 348 347 346 349 346 346 342 344 342 340 339 341 345 343 344 346 342 339 332 329 327 329
307 308 311 311 317 320 319 320 323 325 326 326 331 333 336 337 339 342 339 340 341 343 344 345 345 346 347 344 347 341 340 342 343 337 338 338 336 336 336 333 333 330 330 329 329 329 335 333 331
312 310 310 313 317 317 317 319 321 324 324 326 329 332 334 334 337 339 340 339 340 341 339 338 338 338 338 334 333 334 334 338 335 336 336 333 332 331 334 330 331 331 330 332 331 328 327 325 326
312 312 311 314 317 317 317 316 320 323 324 326 327 329 332 333 335 334 335 337 336 335 336 335 333 334 331 329 330 328 328 331 331 334 333 330 328 327 324 327 327 327 323 328 326 325 320 321 322
313 310 310 311 315 318 315 309 315 322 325 327 329 331 332 331 330 332 332 332 332 332 332 332 332 332 332 333 329 329 329 328 324 325 324 326 325 324 323 322 322 322 323 318 321 320 320 315 318
308 314 312 311 312 304 316 304 309 318 321 324 326 328 327 327 329 329 329 329 328 326 328 329 330 330 330 331 329 329 321 319 320 320 321 321 322 322 322 321 322 322 320 319 317 317 318 317 315
311 316 314 312 312 309 305 304 310 311 316 320 323 324 325 325 326 326 325 326 325 325 325 328 329 329 329 329 327 322 321 319 319 319 322 326 324 322 321 322 321 321 319 320 320 319 319 318 317
317 315 315 314 313 300 307 309 308 305 316 320 323 323 324 324 325 325 325 324 324 326 325 326 327 327 327 326 324 322 320 320 318 318 317 317 318 319 322 320 321 322 321 319 321 320 321 320 320
317 312 303 301 303 300 312 307 312 317 320 321 322 323 323 323 323 323 323 321 323 324 325 324 325 324 325 324 322 320 320 321 320 319 317 319 316 317 321 321 320 320 322 321 322 321 320 320 318
311 312 305 298 299 301 310 303 310 320 323 324 324 324 323 323 323 323 322 322 322 324 324 324 323 323 322 322 320 321 320 318 318 318 318 317 317 317 322 321 321 320 321 321 322 321 320 320 318
311 310 315 307 309 304 307 312 317 321 321 321 322 322 322 322 322 321 322 323 324 324 325 324 323 321 320 320 320 320 319 319 317 319 320 317 320 318 320 321 321 320 318 319 319 316 317 318 319
314 315 306 309 300 297 301 307 305 315 317 320 320 320 322 322 321 321 321 323 324 324 324 324 322 319 319 318 319 317 319 318 318 320 320 320 321 321 320 321 319 317 318 318 318 317 318 317 320
312 312 312 311 309 301 298 305 316 317 320 319 320 320 322 322 321 320 320 323 324 323 322 322 321 320 317 318 318 318 316 317 320 319 319 319 320 320 320 318 317 317 315 317 316 317 317 316 317
313 311 311 305 304 308 305 305 319 320 322 322 320 320 322 322 321 321 320 323 322 321 321 320 321 318 317 318 317 318 318 320 319 320 320 321 320 321 318 316 315 314 314 316 316 314 315 314 314
Wind_Speed
10 12 11 10 8 4 16 21 19 17 17 15 7 12 7 18 17 4 11 7 11 16 16 15 12 10 8 7 6 6 5 4 3 2 2 2 2 3 4 4 5 5 5 6 7 7 7 8 8
14 8 7 5 8 14 15 20 18 14 13 11 5 6 13 15 16 15 13 8 11 14 14 14 12 10 8 7 5 4 3 2 2 2 2 3 2 2 3 3 3 3 4 5 5 6 7 7 8
18 13 11 9 11 14 15 18 14 16 13 10 14 13 14 13 10 10 15 11 12 11 13 16 14 11 10 8 7 6 5 3 2 3 3 4 3 0 1 1 1 1 1 2 3 4 5 5 5
9 9 10 6 16 14 15 11 17 15 18 9 15 17 13 11 6 17 13 12 12 12 15 17 15 11 10 8 7 7 5 5 4 3 2 3 5 6 5 3 3 1 0 0 1 2 3 4 5
12 8 5 12 19 14 13 11 11 17 17 16 16 17 15 12 13 13 11 9 8 9 16 14 14 10 8 6 5 5 4 4 4 3 4 4 5 6 7 7 6 5 3 2 2 2 1 3 4
13 6 8 8 17 19 10 8 13 16 15 17 17 17 15 12 12 11 11 9 7 7 6 14 12 9 6 6 5 4 4 3 5 6 5 5 6 7 7 9 9 8 7 5 5 5 3 2 2
14 2 11 21 12 18 9 18 13 15 17 10 14 18 12 13 12 12 11 9 7 8 5 9 14 12 9 10 9 6 4 2 7 6 7 8 9 11 11 11 11 11 10 9 8 8 6 3 1
12 10 8 23 13 18 10 10 9 15 13 11 4 15 12 14 12 10 11 8 6 7 5 5 5 12 12 18 13 9 4 4 4 8 8 9 12 15 16 16 15 14 12 11 9 9 7 5 5
9 4 4 16 19 17 28 8 12 3 14 12 12 15 19 16 11 11 9 8 6 6 5 3 7 6 4 2 13 11 6 5 5 5 5 7 8 3 21 24 5 9 13 11 11 12 10 9 10
11 4 17 10 11 17 5 10 7 8 31 19 12 16 19 15 11 9 7 3 3 8 6 8 8 10 10 8 2 2 5 4 4 4 4 4 6 11 15 13 9 14 16 11 15 15 11 11 11
4 10 5 9 10 8 7 12 7 19 15 13 24 16 16 13 9 8 3 9 12 14 12 10 8 10 10 8 8 4 2 4 3 3 7 6 2 11 10 7 6 10 12 5 7 9 8 14 11
11 8 4 7 4 3 5 8 13 16 13 10 17 14 14 12 3 26 27 18 19 14 9 12 11 9 8 7 6 4 1 3 3 5 7 3 5 10 10 7 8 7 4 14 16 9 10 6 7
10 3 1 4 6 6 1 14 14 13 9 11 15 11 12 15 22 20 3 11 11 12 12 12 10 8 7 7 7 4 4 4 6 6 5 4 7 8 7 7 8 7 6 9 4 6 4 7 9
4 1 5 4 8 7 26 21 16 10 12 12 13 16 17 14 16 9 4 9 9 10 12 11 9 8 9 7 6 5 4 7 7 7 5 7 7 7 6 6 7 9 4 7 8 8 8 6 7
4 29 24 8 4 12 24 22 13 12 16 17 19 17 13 12 11 9 10 9 11 11 10 12 10 10 9 8 9 5 5 8 6 6 6 7 7 9 8 7 7 8 9 11 7 9 8 9 9
7 11 12 10 7 35 29 20 9 13 17 17 16 12 13 12 9 10 8 11 10 12 12 10 9 10 11 11 9 9 6 8 5 5 5 8 10 10 8 6 6 2 6 9 6 7 6 7 6
23 2 21 12 14 13 21 15 12 11 14 15 12 13 12 10 10 9 10 12 11 12 12 12 12 13 13 11 10 9 10 7 7 6 7 11 10 10 9 7 6 7 5 6 7 7 3 4 7
16 13 3 13 10 12 15 14 10 13 17 13 13 12 13 12 13 12 11 9 14 12 12 13 13 14 14 9 8 10 10 11 9 9 9 12 12 15 11 7 8 5 4 4 2 6 8 7 8
5 4 9 6 3 7 11 11 11 9 14 15 15 16 14 15 11 8 8 14 13 14 14 14 13 15 12 10 10 10 9 8 7 6 8 9 9 10 10 11 8 9 6 7 6 6 10 7 8
4 24 22 5 5 6 12 11 11 12 13 15 14 14 12 12 12 11 12 13 12 13 12 14 14 14 14 12 10 11 11 6 7 4 7 9 12 11 11 10 11 11 11 10 7 9 9 11 8
21 12 4 3 6 7 22 10 7 16 16 15 14 11 11 11 13 13 11 10 11 11 12 14 14 14 14 17 11 10 10 9 10 10 10 8 5 7 10 10 10 11 10 9 11 9 11 10 10
10 9 6 3 11 6 15 5 7 3 15 11 12 11 13 11 13 10 10 10 11 12 13 14 14 14 14 16 13 14 12 11 10 10 9 8 7 7 9 9 6 4 8 8 8 7 8 7 9
10 10 8 5 14 11 16 2 3 11 17 11 11 10 11 12 10 10 10 11 13 12 12 12 12 13 15 15 15 13 14 11 9 9 10 8 7 8 11 10 7 5 6 5 5 5 6 7 7
7 5 4 21 10 9 22 16 9 8 7 10 12 9 8 9 9 10 11 11 11 12 12 10 12 13 14 14 15 15 14 12 10 11 9 9 9 9 13 11 7 7 6 6 5 6 8 9 8
14 9 2 5 5 4 7 4 11 8 8 11 10 8 7 5 10 10 12 13 12 12 12 11 13 12 15 16 15 14 13 12 11 13 12 15 11 11 12 10 10 10 10 9 10 10 7 8 8
15 8 9 14 11 10 17 6 8 13 12 11 9 7 6 9 10 10 12 12 12 10 11 12 12 16 12 11 14 12 15 12 12 11 11 8 9 8 11 11 11 10 12 12 12 10 9 10 10
11 7 11 10 18 11 5 12 13 10 11 10 9 6 7 6 6 9 11 10 9 9 8 10 12 11 8 13 11 14 9 9 9 11 8 7 9 10 12 11 12 11 14 12 14 9 10 10 9
4 6 8 6 8 12 8 15 7 10 10 8 7 5 6 3 5 9 10 9 9 10 9 12 12 7 10 12 11 10 7 9 8 9 9 8 10 12 12 12 13 11 12 12 11 10 11 12 9
4 3 4 5 6 8 9 8 6 8 12 8 5 5 6 2 8 9 9 9 10 10 11 11 11 13 12 11 11 9 7 7 8 9 10 12 11 10 12 13 11 12 12 12 11 12 11 12 12
3 7 5 8 7 3 8 6 5 8 12 8 6 4 8 5 8 9 9 9 10 10 10 10 11 12 11 10 10 10 5 7 9 7 10 11 12 12 12 11 11 11 11 13 12 11 12 12 13
Wind_Direction
211 221 243 258 246 142 66 59 53 48 64 65 67 31 44 29 18 100 136 106 125 120 135 159 159 169 171 171 173 173 179 184 192 186 146 110 78 63 59 57 57 59 58 56 51 48 42 32 26
261 237 235 269 277 86 73 75 62 67 105 120 107 117 51 64 61 96 128 139 143 120 132 150 158 167 170 178 178 185 215 242 243 230 205 171 146 98 57 46 43 47 52 53 54 48 45 50 41
267 268 261 240 57 59 78 82 81 75 57 76 91 52 51 94 97 83 103 146 132 142 144 124 156 170 179 184 186 190 197 205 240 283 313 322 320 291 101 57 24 54 65 69 72 76 75 66 53
287 244 247 131 75 67 90 88 65 74 95 61 69 92 83 60 80 105 133 149 138 147 126 141 155 171 183 192 195 202 208 206 207 232 252 287 303 310 300 277 257 237 279 15 117 133 115 89 49
233 305 300 87 93 79 85 97 82 95 69 77 83 91 92 89 96 111 131 152 149 141 122 148 157 172 183 200 218 223 229 258 258 247 256 269 272 279 280 281 275 262 246 259 256 222 138 82 55
272 120 328 114 83 82 78 83 94 93 91 107 92 82 91 117 129 126 141 146 136 132 133 121 150 170 186 201 221 232 245 253 278 283 278 279 285 277 269 264 260 253 247 240 242 216 191 138 72
298 338 60 42 81 80 84 118 70 62 83 73 100 102 116 143 119 131 139 138 154 123 168 144 167 174 191 204 198 201 226 193 304 293 298 295 282 276 264 249 249 252 244 239 233 202 190 195 165
293 322 111 91 347 89 110 92 91 103 100 122 9 130 132 107 139 129 124 138 134 135 148 187 189 193 195 186 189 179 196 222 128 285 280 282 279 265 276 242 225 229 228 232 209 192 185 211 223
274 286 89 92 117 291 109 118 92 167 116 86 84 90 113 134 146 129 128 126 168 121 100 345 331 315 293 304 159 167 170 179 170 240 8 323 317 4 283 248 105 197 219 227 197 187 194 210 225
277 95 65 27 23 75 54 123 129 124 89 263 77 106 120 136 142 126 176 141 163 120 76 45 6 343 314 325 15 330 180 312 51 337 337 321 337 290 281 282 240 216 207 209 195 193 205 219 243
349 28 39 77 21 350 123 76 82 83 244 57 168 121 129 142 144 156 68 125 35 46 27 14 10 359 337 345 341 344 18 264 260 144 274 267 358 301 297 296 285 224 165 89 234 219 217 225 248
273 71 1 68 112 232 80 100 48 32 27 30 82 118 132 145 78 43 358 342 53 32 10 17 15 23 18 352 324 5 190 221 258 228 243 327 283 266 267 288 298 284 210 166 219 206 216 222 268
252 102 156 165 187 346 275 54 87 47 35 72 87 116 125 90 74 68 357 357 26 15 13 21 23 32 27 354 355 327 328 199 238 236 324 295 263 268 297 284 287 293 311 305 258 220 241 228 223
93 47 112 182 123 67 82 24 20 63 74 91 91 79 70 80 90 78 218 44 18 28 15 15 21 24 11 5 357 315 309 317 316 319 341 316 281 265 278 277 273 287 278 286 305 305 298 281 256
174 39 338 98 94 120 62 12 42 64 76 83 87 87 81 87 85 84 56 42 24 31 12 13 20 20 4 354 344 322 302 326 299 303 18 315 296 295 290 301 330 347 338 323 300 277 267 269 263
66 155 205 79 346 93 92 253 92 106 105 102 106 109 98 84 64 59 85 68 45 31 23 9 11 9 358 345 328 325 331 320 351 360 357 353 326 340 329 321 317 298 249 284 333 339 335 14 352
313 143 96 351 54 111 127 115 109 93 89 96 116 96 102 126 84 50 48 67 41 35 24 22 15 9 349 347 333 326 335 43 6 12 26 5 351 5 345 356 356 353 319 331 334 330 8 5 304
258 100 14 49 45 106 90 101 107 95 90 91 101 103 87 70 67 60 52 55 48 36 31 18 24 12 343 341 339 351 346 15 11 33 20 2 4 6 357 357 7 354 3 340 316 280 279 274 263
13 20 88 92 13 88 93 106 95 84 101 96 98 82 85 71 85 99 72 54 51 46 39 28 30 12 356 11 5 1 358 352 6 29 26 11 9 3 1 348 339 342 326 296 309 305 298 277 295
332 55 331 122 170 140 124 106 108 101 82 85 86 90 97 110 90 75 52 66 57 48 40 32 23 29 16 0 10 359 345 360 359 57 70 41 20 7 354 352 334 359 328 316 357 342 330 310 317
307 8 47 116 175 197 84 3 262 112 102 101 103 105 93 65 68 73 75 59 52 55 42 38 32 25 30 3 15 4 352 354 3 356 12 356 27 3 5 348 349 345 321 335 354 342 325 318 321
127 339 296 221 225 211 181 158 65 58 113 107 93 74 79 80 84 79 63 49 45 33 48 43 34 26 25 23 13 0 358 358 352 355 7 339 26 11 13 10 9 351 323 25 356 347 317 311 295
17 308 295 204 242 123 333 278 285 284 129 109 91 84 84 84 68 60 48 42 28 29 38 43 37 29 22 19 16 4 7 356 359 350 357 350 24 27 21 3 7 348 352 7 316 299 330 292 310
298 280 349 13 316 147 225 241 147 166 168 119 101 84 73 79 79 61 36 41 34 34 23 43 26 29 19 17 14 14 5 2 8 352 360 352 357 8 28 359 352 349 359 330 316 314 315 318 311
270 312 189 236 246 266 175 283 87 136 88 91 95 97 81 71 59 37 35 17 32 31 20 8 25 21 18 7 14 16 7 8 5 3 11 341 356 357 9 350 358 353 342 335 342 330 312 312 333
308 329 323 340 336 348 50 6 153 118 112 105 95 86 82 48 39 24 43 19 20 19 22 8 11 39 9 3 12 22 12 2 8 360 346 348 340 344 355 349 348 345 343 337 349 332 335 323 314
354 327 7 302 264 272 187 111 93 130 133 134 107 99 81 57 42 29 40 34 7 1 41 18 14 39 10 13 9 38 5 6 9 343 343 355 339 337 353 351 350 355 0 356 340 354 339 339 330
313 351 302 237 317 323 186 85 157 186 150 125 130 121 97 24 44 40 42 37 7 7 31 29 3 52 25 8 29 40 13 357 354 333 351 345 354 348 354 355 6 7 351 3 349 343 348 335 333
290 193 347 280 311 322 313 98 28 138 144 150 117 96 113 257 35 39 48 34 21 16 15 39 7 18 20 2 72 33 14 345 345 359 357 15 354 358 9 7 348 12 357 358 353 342 345 354 353
4 359 332 328 357 12 275 96 49 107 117 132 118 132 76 20 27 36 40 34 37 22 18 28 19 19 16 356 80 43 6 350 3 360 5 11 3 13 12 354 359 17 350 357 352 1 2 358 6